Regional Weather Roundup
Issued by NWS Sterling, VA

Current Version | Previous Version | Text Only | Print | Product List | Glossary On
Versions: 1 2 3 4 5 6 7 8 9 10 11 12 13 14 15 16 17 18 19 20 21 22 23 24 25 26 27 28 29 30 31 32 33 34 35 36 37 38 39 40 41 42 43 44 45 46 47 48 49 50
074 ASUS41 KLWX 210112 RWRLWX REGIONAL WEATHER ROUNDUP NATIONAL WEATHER SERVICE BALTIMORE MD/WASHINGTON DC 900 PM EDT TUE APR 20 2021 Note: "FAIR" indicates few or no clouds below 12,000 feet with no significant weather and/or obstructions to visibility. TC=TEMPERATURE CELSIUS * =Non NWS site. Station does not report precipitation (e.g. rain, snow, etc.), thunder, or fog. DCZ001-MDZ009-015-VAZ040>042-051-053>054-210200- WASHINGTON METRO CITY SKY/WX TMP DP RH WIND PRES REMARKS WASHINGTON NAT CLEAR 67 45 45 S13 29.85S DULLES PTCLDY 68 39 34 S10G17 29.83S ANDREWS AFB CLEAR 64 44 47 S15 29.85F FT BELVOIR CLEAR 66 40 38 SE8 29.85S QUANTICO CLEAR 66 54 65 S8 29.87R COLLEGE PARK* CLEAR 67 38 34 SE5 29.85R LEESBURG* CLEAR 66 41 39 S8 29.84R MANASSAS* CLEAR 66 42 41 S13 29.84S GAITHERSBURG* CLEAR 66 40 38 S8 29.85S $$ MDZ006>007-011-014-210200- BALTIMORE METRO CITY SKY/WX TMP DP RH WIND PRES REMARKS BWI AIRPORT CLEAR 64 47 53 SE7 29.85S MARTIN STATE CLEAR 63 52 67 SE14G20 29.89S ANNAPOLIS CLEAR 62 50 64 S17G29 29.88R ABERDEEN* CLEAR 64 44 47 S10 29.86S FORT MEADE* CLEAR 61 46 59 SE9 29.88S $$ MDZ012-015-019>023-210200- MARYLAND EASTERN SHORE CITY SKY/WX TMP DP RH WIND PRES REMARKS OCEAN CITY CLEAR 57 50 77 MISG 29.98S SALISBURY CLEAR 60 38 43 S13 29.95S CAMBRIDGE* CLEAR 63 48 59 S14G24 29.92S EASTON* CLEAR 64 46 52 S15G22 29.94S $$ MDZ017>025-210200- SOUTHERN MARYLAND CITY SKY/WX TMP DP RH WIND PRES REMARKS PATUXENT RIVER PTCLDY 62 52 69 SE7 29.90S ST INIGOES CLEAR 65 52 62 SE12G18 29.90S LEONARDTOWN* NOT AVBL $$ MDZ003>005-210200- NORTH CENTRAL MARYLAND CITY SKY/WX TMP DP RH WIND PRES REMARKS FREDERICK* CLEAR 68 37 32 S8 29.82S HAGERSTOWN APT PTCLDY 68 38 33 S13 29.79R WESTMINSTER* CLEAR 64 45 48 SE8 29.84S $$ MDZ501>502-210200- WESTERN MARYLAND CITY SKY/WX TMP DP RH WIND PRES REMARKS OAKLAND* CLOUDY 54 32 43 W3 29.84S CUMBERLAND* CLOUDY 64 43 46 E5 29.83R $$ VAZ025>031-210200- SHENANDOAH VALLEY CITY SKY/WX TMP DP RH WIND PRES REMARKS WINCHESTER* PTCLDY 64 37 36 S10 29.79R FRONT ROYAL* CLEAR 66 37 34 S5 29.80S LURAY* PTCLDY 64 37 36 S6 29.83R NEW MARKET* PTCLDY 64 37 37 S8 29.82S STAUNTON* MOCLDY 62 39 43 S6 29.87R WAYNESBORO* MOCLDY 64 39 40 S7G16 29.86S $$ WVZ021-048>050-054>055-210200- EASTERN WEST VIRGINIA PANHANDLE CITY SKY/WX TMP DP RH WIND PRES REMARKS MARTINSBURG PTCLDY 66 37 34 S9 29.78S PETERSBURG* MOCLDY 60 49 66 W7 29.82R $$ VAZ036>039-050-210200- CENTRAL FOOTHILLS CITY SKY/WX TMP DP RH WIND PRES REMARKS CHARLOTTESVILL PTCLDY 66 41 40 S8 29.85S CULPEPER* CLEAR 68 38 34 S6 29.85S ORANGE* CLEAR 64 41 42 S5 29.86S GORDONSVILLE* CLEAR 64 42 45 CALM 29.85S WARRENTON* CLEAR 68 36 30 S10G17 29.84S $$ VAZ055>057-210200- NORTH AND CENTRAL PIEDMONT CITY SKY/WX TMP DP RH WIND PRES REMARKS FREDERICKSBRG* CLEAR 64 40 41 S8 29.87R STAFFORD* CLEAR 67 23 18 S8 29.91R $$ NCZ024-NYZ072-PAZ021-071-VAZ022-071-210200- OTHER REGIONAL OBSERVATIONS CITY SKY/WX TMP DP RH WIND PRES REMARKS NEW YORK CITY CLEAR 66 41 40 VRB6 29.91R PHILADELPHIA PTCLDY 64 44 48 S10 29.89R PITTSBURGH PTCLDY 45 32 60 N12 29.86R ROANOKE PTCLDY 67 41 38 S7 29.89R RICHMOND CLEAR 63 42 46 S8 29.91S RALEIGH PTCLDY 66 42 41 S15G21 29.94R $$ ANZ530>537-210200- MARINE OBSERVATIONS STATION/POSITION TIME TEMP WIND PRES AIR SEA DIR/SP/G (UTC) (F) (DEG/KT/KT) (MB) THOMAS PT LIGHT 0100 61 56 140/ 23/ 25 1012.1F TOLCHESTER 0018 66 58 160/ 7/ 12 1011.7 GOOSES REEF 0048 57 56 1012.8S COVE POINT 0024 60 140/ 20/ 23 1012.6 BALT HARBOR 0024 64 57 190/ 5/ 10 1010.8 BALT KEY BRIDGE 0024 63 170/ 16/ 18 1010.9 WASH DC CHANNEL 0024 68 61 180/ 9/ 9 1010.7 DAHLGREN 0024 68 63 160/ 5/ 6 1011.1 LEWISETTA 0024 63 59 170/ 8/ 10 1013.0 SOLOMONS ISLAND 0024 63 59 160/ 10/ 12 1012.3 PINEY POINT 0024 170/ 14/ 16 N/A POTOMAC BUOY 0048 61 59 160/ 16/ 17 1013.4S CAMBRIDGE PIER 0024 160/ 12/ 16 N/A BISHOPS HEAD 0024 62 63 170/ 18/ 21 1013.2 CHESAPEAKE CITY 0024 66 59 180/ 8/ 10 1012.1 $$

USA.gov is the U.S. government's official web portal to all federal, state and local government web resources and services.